Regional Weather Roundup
Issued by NWS

Home | Current Version | Previous Version | Text Only | Print | Product List | Glossary On
Versions: 1 2 3 4 5 6 7 8 9 10 11 12 13 14 15 16 17 18 19 20 21 22 23 24 25 26 27 28 29 30 31 32 33 34 35 36 37 38 39 40 41 42 43 44 45 46 47 48 49 50
000
ASUS43 KMPX 161310
RWRMN
WEATHER ROUNDUP FOR MINNESOTA
NATIONAL WEATHER SERVICE TWIN CITIES/CHANHASSEN MN
800 AM CDT WED AUG 16 2017


NOTE: "FAIR" INDICATES FEW OR NO CLOUDS BELOW 12,000 FEET WITH NO
SIGNIFICANT WEATHER AND/OR OBSTRUCTIONS TO VISIBILITY. N/A MEANS
CURRENT SKY AND/OR WEATHER CONDITIONS ARE NOT AVAILABLE.

MNZ060>063-068>070-161400-
   Twin Cities Metro

CITY           SKY/WX    TMP DP  RH WIND       PRES   REMARKS
TWIN CITIES    CLOUDY    66  63  90 SE13      29.92S
ST PAUL        LGT RAIN  65  65 100 E8        29.93S
CRYSTAL        CLOUDY    65  62  90 SE7       29.91S
BLAINE         LGT RAIN  66  66 100 SE3       29.93R
LAKEVILLE      LGT RAIN  63  63 100 SE5       29.93R
EDEN PRAIRIE   CLOUDY    67  64  90 SE9       29.91S
SOUTH ST PAUL  LGT RAIN  65  65  99 SE3       29.93R
LAKE ELMO      HVY RAIN  63  63 100 E8        29.95S
$$
MNZ001>005-007-008-013>017-022>024-027-028-161400-
   Northwest Minnesota

CITY           SKY/WX    TMP DP  RH WIND       PRES   REMARKS
BEMIDJI        CLOUDY    62  59  88 E10       29.92F
HALLOCK        LGT RAIN  63  61  94 SE6       29.89F
ROSEAU         LGT RAIN  64  61  88 CALM      29.93R
WARROAD        CLOUDY    64  61  88 SE6       29.94S
THIEF RVR FALL LGT RAIN  62  60  93 SE8       29.89F
CROOKSTON      LGT RAIN  64  61  88 SE7       29.87S
FOSSTON        DRIZZLE   61  57  88 E8        29.88F
DETROIT LAKES  CLOUDY    63  61  94 SE12      29.88F FOG
MOORHEAD       CLOUDY    64  63  94 SE6       29.85S
PARK RAPIDS    LGT RAIN  63  60  90 SE7       29.91F FOG
MAHNOMEN       CLOUDY    63  60  92 SE9       29.87F
$$
MNZ006-009>011-018-025>026-161400-
   North Central Minnesota

CITY           SKY/WX    TMP DP  RH WIND       PRES   REMARKS
BAUDETTE       CLOUDY    61  59  93 SE9       29.94S
FLAG ISLAND    CLOUDY    68  64  88 CALM      29.93S
INTL FALLS     CLOUDY    60  51  72 SE6       29.98F
WASKISH        LGT RAIN  61  57  88 E7        29.94F
BIG FORK       CLOUDY    61  54  77 SE5       29.97F
LONGVILLE      CLOUDY    61  57  88 SE3       29.94F
GRAND RAPIDS   CLOUDY    60  55  83 SE8       29.98F
CRANE LAKE     MOSUNNY   57  50  77 CALM      30.02F
ORR            CLOUDY    59  48  67 SE3       29.98S
COOK             N/A     61  50  67 E3        30.01S
WALKER         CLOUDY    62  58  87 E8        29.93S
$$
MNZ012-019>021-037-161400-
   Northeast Minnesota

CITY           SKY/WX    TMP DP  RH WIND       PRES   REMARKS
DULUTH         PTSUNNY   58  56  93 E12       30.00F
ELY            MOSUNNY   57  48  72 E5        30.03F
HIBBING        CLOUDY    57  51  80 E5        29.99F
EVELETH        CLOUDY    58  49  74 NE5       30.01F
DULUTH HARBOR  MOSUNNY   64  61  88 NE20      30.00F
TWO HARBORS    MOSUNNY   63  57  82 E6        30.00F
SILVER BAY     CLOUDY    61  57  88 NE6       30.01F
GRAND MARAIS     N/A     60  56  86 NE7       30.05F
G MARAIS ARPRT CLOUDY    50  46  87 N3        30.08F
$$
MNZ029>031-032-039>041-046>048-054>057-064-161400-
   West Central Minnesota

CITY           SKY/WX    TMP DP  RH WIND       PRES   REMARKS
FERGUS FALLS   CLOUDY    64  64 100 SE7       29.86S
WHEATON        CLOUDY    64  63  94 SE7       29.86S FOG
MORRIS         CLOUDY    64  64 100 SE8       29.85S FOG
ALEXANDRIA     CLOUDY    64  63  96 SE8       29.89F FOG
ELBOW LAKE     CLOUDY    64  64 100 E8        29.86F FOG
WADENA         CLOUDY    63  63 100 SE12      29.89F
GLENWOOD       DRIZZLE   64  63  94 SE6       29.89F
APPLETON       CLOUDY    66  63  88 SE7       29.84F FOG
BENSON         CLOUDY    66  63  88 S7        29.87F FOG
ORTONVILLE     CLOUDY    64  63  94 MISG      29.84S FOG
MADISON        CLOUDY    70  70 100 SE5       29.84F FOG
WILLMAR        CLOUDY    66  64  94 SE6       29.88F
$$
MNZ033>034-036-042>043-049>051-058-059-161400-
   Central Minnesota

CITY           SKY/WX    TMP DP  RH WIND       PRES   REMARKS
ST CLOUD       CLOUDY    63  63 100 SE7       29.91S
SAUK CENTRE    CLOUDY    63  63  99 SE8       29.89F FOG
PAYNESVILLE    CLOUDY    65  64  94 SE7       29.89F
AITKIN         CLOUDY    61  57  88 E6        29.93F
PINE RIVER     CLOUDY    61  55  82 E7        29.96S
BRAINERD       CLOUDY    62  60  93 VRB6      29.92F
STAPLES        RAIN      61  59  94 E5        29.91S
LONG PRAIRIE   CLOUDY    61  61 100 E5        29.90F FOG
LITTLE FALLS   CLOUDY    61  59  94 SE5       29.92R
LITCHFIELD     CLOUDY    66  64  94 SE10      29.90S
BUFFALO        CLOUDY    65  62  90 E7        29.92F
MAPLE LAKE     CLOUDY    66  64  96 SE3       29.91F
HUTCHINSON     DRIZZLE   65  64  96 E9        29.90F
$$
MNZ037-044-045-052-053-161400-
   East Central Minnesota

CITY           SKY/WX    TMP DP  RH WIND       PRES   REMARKS
PRINCETON      RAIN      64  63  94 E5        29.93S
MORA           CLOUDY    61  59  94 E5        29.96F
RUSH CITY      RAIN      63  59  88 CALM      29.94F
MOOSE LAKE     MOSUNNY   59  55  88 CALM      29.96S
HINCKLEY       CLOUDY    63  61  94 E7        29.96F
CLOQUET        MOSUNNY   61  55  82 E6        29.99S
MCGREGOR       CLOUDY    61  57  88 E6        29.96F
$$
MNZ071>073-080-081-089-090-097-098-161400-
   Southwest Minnesota

CITY           SKY/WX    TMP DP  RH WIND       PRES   REMARKS
MONTEVIDEO     CLOUDY    66  66 100 SE5       29.85F FOG
GRANITE FALLS  CLOUDY    68  67  96 SE5       29.87S FOG
CANBY          CLOUDY    67  66  95 CALM      29.85F FOG
MARSHALL       MOSUNNY   67  65  93 SE9       29.86R
REDWOOD FALLS  CLOUDY    66  64  93 SE10      29.86S FOG
OLIVIA         CLOUDY    64  63  94 SE7       29.87R FOG
PIPESTONE      DRZL/FOG  66  64  94 SE5       29.86R VSB 1/2
WINDOM         CLOUDY    66  64  94 SE7       29.88S FOG
WORTHINGTON    CLOUDY    66  66 100 SE6       29.87F FOG
JACKSON        FOG       64  64 100 CALM      29.90R VSB<1/4
TRACY          LGT RAIN  67  67  99 S6        29.87S
SLAYTON        CLOUDY    64  60  86 SE5       29.88F FOG
$$
MNZ065>067-074>077-082>085-091>093-161400-
   South Central Minnesota

CITY           SKY/WX    TMP DP  RH WIND       PRES   REMARKS
MANKATO        CLOUDY    65  64  97 SE16      29.89F
NEW ULM        CLOUDY    64  63  94 SE7       29.88F FOG
ST JAMES       CLOUDY    66  64  94 E6        29.90R FOG
FAIRMONT       CLOUDY    66  65  96 SE5       29.90R FOG
GLENCOE        LGT RAIN  66  66 100 E8        29.89F
FARIBAULT      CLOUDY    64  63  94 N3        29.94R FOG
OWATONNA       PTSUNNY   66  64  94 SE10      29.92S
WASECA         CLOUDY    63  61  94 E9        29.93F
ALBERT LEA     CLOUDY    68  66  94 SE8       29.92R FOG
$$
MNZ078>079-086>088-094>096-161400-
   Southeast Minnesota

CITY           SKY/WX    TMP DP  RH WIND       PRES   REMARKS
ROCHESTER      MOSUNNY   64  61  90 SE12      29.95R
RED WING       LGT RAIN  64  61  88 E6        29.93F
STANTON        LGT RAIN  66  63  89 CALM      29.92S
DODGE CENTER   MOSUNNY   64  61  88 SE9       29.94S
WINONA         MOSUNNY   66  61  82 SE13      29.95F
AUSTIN         CLOUDY    66  63  88 SE9       29.92S FOG
PRESTON        PTSUNNY   63  58  82 SE9       29.96S
$$
ABBREVIATIONS USED IN REMARKS
   TC - TEMPERATURES IN CELSIUS
  WCI - WIND CHILL INDEX
   HX - HEAT INDEX
  VSB - VISIBILITY
$$




USA.gov is the U.S. government's official web portal to all federal, state and local government web resources and services.